Location: Nelson
(41.2830°S, 173.2830°E)
Time: 03:25:10
(UTC+12:00)

BREEZE-M DEB (TANK) - Pass Details

Date: 24 January 2019
Orbit: 312 x 16760 km, 49.4° (Epoch: 17 April)

Event Time Altitude Azimuth Distance (km) Brightness Sun altitude
Rises 21:14:54 0° 310° (NW) 12,198 9.9 -4.1°
Reaches altitude 10° 21:27:43 10° 309° (NW) 8,259 9.0 -6.1°
Maximum altitude 21:46:31 82° 31° (NNE) 1,284 4.6 -9.1°
Drops below altitude 10° 21:50:54 10° 119° (ESE) 2,140 5.6 -9.7°
Enters shadow 21:53:57 -9° 120° (ESE) 3,542 6.7 -10.2°
